Regional Weather Roundup
Issued by NWS

Home | Current Version | Previous Version | Text Only | Print | Product List | Glossary On
Versions: 1 2 3 4 5 6 7 8 9 10 11 12 13 14 15 16 17 18 19 20 21 22 23 24 25 26 27 28 29 30 31 32 33 34 35 36 37 38 39 40 41 42 43 44 45 46 47 48 49 50
000
ASUS45 KABQ 290910
RWRNM
WEATHER ROUNDUP FOR NEW MEXICO
NATIONAL WEATHER SERVICE ALBUQUERQUE NM
200 AM MST SAT NOV 29 2014

NOTE: "FAIR" MEANS FEW OR NO CLOUDS BELOW 12,000 FEET AGL WITH NO
       SIGNIFICANT WEATHER OR OBSTRUCTIONS TO VISION.

      THIS PRODUCT IS RELEASED AS TWO VERSIONS.  ONE VERSION NEAR
      THE TOP OF THE HOUR CONTAINING PRELIMINARY DATA FROM ALBUQUERQUE
      AND OTHER STATIONS.  A FINAL VERSION WITH ADDITIONAL DATA IS
      ISSUED ABOUT 10 MINUTES AFTER THE HOUR.

NMZ501-503-504-510>518-291000-
NORTHWEST PLATEAU/NORTHCENTRAL MOUNTAINS

CITY           SKY/WX    TMP DP  RH WIND       PRES   REMARKS
FARMINGTON     CLEAR     29  15  56 E9        30.04R WCI  20
LOS ALAMOS     PTCLDY    42  14  31 W3        30.10R
SANTA FE       CLEAR     41  16  36 W5        30.07S
TAOS           CLEAR     25  18  74 CALM      30.10R
ANGEL FIRE     FAIR      38   7  27 S10       30.08S WCI  31

$$
NMZ402-403-502-505>509-291000-
WESTCENTRAL MOUNTAINS/SOUTHWEST MOUNTAINS

CITY           SKY/WX    TMP DP  RH WIND       PRES   REMARKS
GALLUP         MOCLDY    24   4  42 NE6       30.10S WCI  17
GRANTS         PTCLDY    18  -2  41 N7        30.13S WCI   8
SILVER CITY    CLEAR     37  16  41 N12       30.11S WCI  30

$$
NMZ407-409-411-412-291000-
SOUTHERN DESERTS

CITY           SKY/WX    TMP DP  RH WIND       PRES   REMARKS
LORDSBURG      FAIR      32  16  51 SE3       30.07S
DEMING         CLEAR     33  17  51 W3        30.06S
LAS CRUCES     CLEAR     37  14  38 CALM      30.07S
HOLLOMAN AFB   PTCLDY    32  15  49 N3        30.05S
ALAMOGORDO     PTCLDY    34  10  37 NE3       30.06S
T OR C         CLEAR     35  18  49 W6        30.06S WCI  30

$$
NMZ519>523-291000-
CENTRAL VALLEYS/CENTRAL HIGHLANDS

CITY           SKY/WX    TMP DP  RH WIND       PRES   REMARKS
ALBUQUERQUE    PTCLDY    39  18  42 SE5       30.07R
DOUBLE EAGLE   PTCLDY    26  12  56 CALM      30.08R
MORIARTY ARPT  FAIR      22  17  79 NW3       30.08S
CLINES CORNERS PTCLDY    36  16  44 W13       30.05F WCI  27
BELEN          FAIR      27  14  58 CALM      30.06S
SOCORRO        FAIR      38  19  47 S8        30.06S WCI  32

$$
NMZ524>526-539-540-291000-
SOUTHCENTRAL MOUNTAINS

CITY           SKY/WX    TMP DP  RH WIND       PRES   REMARKS
RUIDOSO        CLEAR     41  10  28 W7        30.12S

$$
NMZ527>531-291000-
NORTHEAST HIGHLANDS/NORTHEAST PLAINS

CITY           SKY/WX    TMP DP  RH WIND       PRES   REMARKS
LAS VEGAS      CLEAR     43  10  26 S9        29.98F
RATON          PTCLDY    45   6  20 NW6       29.91S
CLAYTON        CLEAR     53   9  17 W18G24    29.83F

$$
NMZ532>537-291000-
EASTCENTRAL PLAINS

CITY           SKY/WX    TMP DP  RH WIND       PRES   REMARKS
TUCUMCARI      CLEAR     55  20  25 W16       29.88F
CANNON AFB     PTCLDY    46  20  35 SW6       29.93S
CLOVIS AIRPORT CLEAR     43  19  39 W12       29.92F

$$
NMZ028-029-538-291000-
SOUTHEAST PLAINS

CITY           SKY/WX    TMP DP  RH WIND       PRES   REMARKS
ROSWELL        MOCLDY    35  26  69 NW5       29.96S WCI  31
CARLSBAD       PTCLDY    34  24  67 CALM      29.95S
HOBBS          PTCLDY    37  21  52 S7        29.98S WCI  32


$$


USA.gov is the U.S. government's official web portal to all federal, state and local government web resources and services.